User: anonymous   Login
Location: Unspecified
(0.0000°N, 0.0000°E)
Time: 01:13:24
(UTC+00:00)
Language:

ISS - Orbit

View from above orbital plane
View from above orbital plane
View from above satellite
View from above satellite

Ground track
Ground track

The orbit data is extracted from the following two-line orbital elements,

1 25544U 98067A   24104.84924656  .00014577  00000-0  26139-3 0  9993
2 25544  51.6399 274.4116 0004733  65.7744  78.8036 15.50162147448561
Epoch (UTC): 13 April 2024 20:22:54
Eccentricity: 0.0004733
inclination: 51.6399°
perigee height: 413 km
apogee height: 419 km
right ascension of ascending node: 274.4116°
argument of perigee: 65.7744°
revolutions per day: 15.50162147
mean anomaly at epoch: 78.8036°
orbit number at epoch: 44856

The dashed part of the orbit path shows where the satellite is in the earth's shadow,  

DLR